Time,TemperatureF,DewpointF,PressureIn,WindDirection,WindDirectionDegrees,WindSpeedMPH,WindSpeedGustMPH,Humidity,HourlyPrecipIn,Conditions,Clouds,dailyrainin,SoftwareType,DateUTC
2013-05-18 00:00:00,40.0,34.0,-100.00,North,-999,-999.0,-999.0,80,-99.99,,,-99.99,,2013-05-18 07:00:00,
2013-05-18 00:52:00,40.0,34.0,-100.00,North,-999,-999.0,-999.0,80,-99.99,,,-99.99,,2013-05-18 07:52:00,
2013-05-18 01:00:00,39.0,34.0,-100.00,WSW,246,6.0,8.0,82,-99.99,,,0.00,,2013-05-18 08:00:00,
2013-05-18 02:00:00,39.0,34.0,-100.00,NW,310,5.0,7.0,83,-99.99,,,0.00,,2013-05-18 09:00:00,
2013-05-18 03:00:00,38.0,34.0,-100.00,WSW,252,5.0,6.0,84,-99.99,,,0.00,,2013-05-18 10:00:00,
2013-05-18 04:00:00,37.0,33.0,-100.00,West,271,4.0,6.0,86,-99.99,,,0.00,,2013-05-18 11:00:00,
2013-05-18 05:00:00,36.0,33.0,-100.00,West,260,5.0,8.0,86,-99.99,,,0.00,,2013-05-18 12:00:00,
2013-05-18 06:00:00,37.0,33.0,-100.00,WNW,285,4.0,7.0,85,-99.99,,,0.00,,2013-05-18 13:00:00,
2013-05-18 07:00:00,41.0,35.0,-100.00,NW,324,1.0,3.0,81,-99.99,,,0.00,,2013-05-18 14:00:00,
2013-05-18 08:00:00,42.0,33.0,-100.00,West,262,2.0,6.0,70,-99.99,,,0.00,,2013-05-18 15:00:00,
2013-05-18 09:00:00,42.0,33.0,-100.00,WNW,303,2.0,4.0,71,-99.99,,,0.01,,2013-05-18 16:00:00,
2013-05-18 10:00:00,45.0,37.0,-100.00,SSW,206,2.0,5.0,73,-99.99,,,0.00,,2013-05-18 17:00:00,
2013-05-18 11:00:00,45.0,37.0,-100.00,West,268,3.0,5.0,75,-99.99,,,0.00,,2013-05-18 18:00:00,
2013-05-18 12:00:00,44.0,36.0,-100.00,West,270,2.0,5.0,72,-99.99,,,0.00,,2013-05-18 19:00:00,
2013-05-18 13:00:00,45.0,35.0,-100.00,NW,307,3.0,5.0,67,-99.99,,,0.00,,2013-05-18 20:00:00,
2013-05-18 14:00:00,43.0,34.0,-100.00,SSE,155,3.0,5.0,69,-99.99,,,0.00,,2013-05-18 21:00:00,
2013-05-18 15:00:00,45.0,38.0,-100.00,SW,216,2.0,5.0,76,-99.99,,,0.00,,2013-05-18 22:00:00,
2013-05-18 16:00:00,46.0,35.0,-100.00,SW,230,3.0,7.0,64,-99.99,,,0.00,,2013-05-18 23:00:00,
2013-05-18 17:00:00,45.0,35.0,-100.00,WNW,297,4.0,6.0,70,-99.99,,,0.00,,2013-05-19 00:00:00,
2013-05-18 18:00:00,44.0,35.0,-100.00,West,260,4.0,8.0,69,-99.99,,,0.00,,2013-05-19 01:00:00,
2013-05-18 19:00:00,43.0,34.0,-100.00,WNW,292,4.0,6.0,70,-99.99,,,0.00,,2013-05-19 02:00:00,
2013-05-18 20:00:00,41.0,33.0,-100.00,SW,234,4.0,6.0,74,-99.99,,,0.00,,2013-05-19 03:00:00,
2013-05-18 21:00:00,39.0,33.0,-100.00,West,280,3.0,5.0,77,-99.99,,,-99.99,,2013-05-19 04:00:00,
2013-05-18 22:00:00,39.0,32.0,-100.00,WNW,288,4.0,6.0,75,-99.99,,,-99.99,,2013-05-19 05:00:00,
2013-05-18 23:00:00,38.0,31.0,-100.00,NW,308,4.0,6.0,73,-99.99,,,-99.99,,2013-05-19 06:00:00,